Location: Colorado Springs
(38.8340°N, 104.8210°W)
Time: 00:08:35
(UTC-07:00)

Tiangong 2 - Pass Details

Date: 14 October 2017
Orbit: 386 x 389 km, 42.8° (Epoch: 17 December)

Event Time Altitude Azimuth Distance (km) Brightness Sun altitude
Exits shadow 06:03:39 21° 305° (NW) 944 2.6 -13.3°
Maximum altitude 06:05:21 38° 3° (N) 609 2.1 -13.0°
Drops below altitude 10° 06:08:23 10° 74° (ENE) 1,423 5.2 -12.4°
Sets 06:10:33 0° 82° (E) 2,280 6.9 -11.9°
